User: anonymous   Login
Location: Winterland
(47.1574°N, 55.3067°W)
Time: 14:03:54
(UTC+00:00)
Language:

Tiangong - Orbit

View from above orbital plane
View from above orbital plane
View from above satellite
View from above satellite

Ground track
Ground track

The orbit data is extracted from the following two-line orbital elements,

1 48274U 21035A   22270.17187344  .00012177  00000-0  13528-3 0  9994
2 48274  41.4724 317.4889 0004178  31.9322 190.3765 15.62725248 80718
Epoch (UTC): 27 September 2022 04:07:29
Eccentricity: 0.0004178
inclination: 41.4724°
perigee height: 377 km
apogee height: 382 km
right ascension of ascending node: 317.4889°
argument of perigee: 31.9322°
revolutions per day: 15.62725248
mean anomaly at epoch: 190.3765°
orbit number at epoch: 8071

The dashed part of the orbit path shows where the satellite is in the earth's shadow,  

DLR